[[{"header":{"parameterUnit":"m.s-1","parameterCategory":2,"la1":30.2991,"la2":30.254,"lo1":-89.0895,"lo2":-89.0444,"dy":0.0017,"dx":0.0017,"nx":28,"ny":28,"refTime":"2025-09-14T03:00:00:Z","depth":"0","parameterNumber":2,"parameterNumberName":"U-component_of_CURRENTS"},"data":[0,0,0,0,0,0,0,0,0,0,0,0,0,0,0,0,0,0,0,0,0,0,0,0,0,0,0,0,0,0,0,0,0,0,0,0,0,0,0,0,0,0,0,0,0,0,0,0,0,0,0,0,0,0,0,0,0,0,-0.331,-0.331,0,-0.3246,-0.3245,-0.3244,-0.3331,-0.3334,-0.3338,-0.3341,-0.3295,-0.3291,-0.3287,0,0,0,0,0,0,0,0,0,0,0,0,0,-0.3362,-0.3361,-0.331,-0.331,-0.3309,-0.3246,-0.3245,-0.3244,-0.3331,-0.3335,-0.3339,-0.3342,-0.3297,-0.3292,-0.3287,0,0,0,0,0,0,0,0,0,0,0,0,0,-0.3322,-0.3361,-0.3311,-0.3346,-0.3348,-0.3246,-0.3245,-0.3244,-0.333,-0.3335,-0.334,-0.3344,-0.3298,-0.3292,-0.3286,-0.315,0,0,-0.3267,-0.3264,0,0,0,0,0,0,0,0,-0.3324,-0.332,-0.3341,-0.3343,-0.3346,-0.3303,-0.3247,-0.3214,-0.3329,-0.3335,-0.3341,-0.3346,-0.3297,-0.3291,-0.3266,-0.3148,-0.3146,-0.3266,-0.3262,-0.326,-0.3258,0,0,0,0,0,0,0,-0.3327,-0.3322,-0.3284,-0.334,-0.3343,-0.3314,-0.3315,-0.324,-0.3289,-0.3335,-0.3342,-0.3335,-0.3299,-0.3272,-0.3266,-0.3145,-0.3266,-0.3261,-0.3257,-0.3254,-0.2954,-0.295,0,0,0,0,0,0,-0.3339,-0.3325,-0.3286,-0.3282,-0.3348,-0.331,-0.3311,-0.3311,-0.329,-0.3291,-0.3331,-0.3339,-0.328,-0.3273,-0.3264,-0.3138,-0.326,-0.3254,-0.325,-0.2958,-0.2953,-0.2949,0,0,0,0,0,0,-0.3341,-0.3336,-0.3288,-0.3303,-0.3295,-0.3305,-0.3303,-0.3307,-0.3304,-0.3286,-0.329,-0.3328,-0.3284,-0.3273,-0.3208,-0.3137,-0.3251,-0.3245,-0.2963,-0.2957,-0.2951,-0.2862,0,0,0,0,0,0,-0.3342,-0.3337,-0.3332,-0.3304,-0.3295,-0.3218,-0.3299,-0.3302,-0.3291,-0.3302,-0.3283,-0.3283,-0.3287,-0.3217,-0.3201,-0.313,-0.324,-0.2968,-0.296,-0.2953,-0.2871,-0.2854,-0.2839,0,0,0,0,0,-0.3344,-0.3277,-0.3333,-0.3328,-0.3291,-0.3216,-0.3206,-0.3229,-0.3287,-0.3252,-0.3258,-0.3285,-0.3156,-0.3208,-0.3191,-0.3116,-0.2972,-0.2962,-0.2953,-0.2877,-0.2857,-0.284,0,0,0,0,0,0,-0.3243,-0.3279,-0.334,-0.3279,-0.3264,-0.3231,-0.3181,-0.3219,-0.3193,-0.32,-0.3229,-0.3225,-0.3132,-0.3126,-0.3183,-0.3003,-0.3066,-0.3053,-0.3014,-0.2995,-0.298,-0.302,-0.3235,0,0,0,0,0,-0.3236,-0.3222,-0.3244,-0.3185,-0.3183,-0.3194,-0.3169,-0.3181,-0.3157,-0.3154,-0.3156,-0.3128,-0.3065,-0.3043,-0.2981,-0.288,-0.2902,-0.2818,-0.2803,-0.279,-0.2807,-0.2799,-0.2787,-0.2918,-0.2918,-0.2918,0,0,-0.3163,-0.3188,-0.3172,-0.3168,-0.3158,-0.3111,-0.3189,-0.3119,-0.3084,-0.3142,-0.3083,-0.3062,-0.3023,-0.2918,-0.2875,-0.2917,-0.2748,-0.2778,-0.2768,-0.2792,-0.2788,-0.2776,-0.2766,-0.2911,-0.2912,-0.2913,0,0,-0.2997,-0.3055,-0.2998,-0.2999,-0.2993,-0.3006,-0.2997,-0.2982,-0.2989,-0.2911,-0.2951,-0.2909,-0.2808,-0.2791,-0.2762,-0.2615,-0.2658,-0.2579,-0.2543,-0.2534,-0.2525,-0.2518,-0.2479,-0.2469,-0.2583,-0.2583,-0.2583,0,-0.2905,-0.2896,-0.2951,-0.2904,-0.2912,-0.2968,-0.2914,-0.2885,-0.2853,-0.2866,-0.2874,-0.2782,-0.2743,-0.2669,-0.2618,-0.2582,-0.2589,-0.2625,-0.252,-0.2513,-0.2508,-0.2471,-0.2461,-0.2578,-0.2578,-0.2579,-0.2579,0,-0.2726,-0.2737,-0.2684,-0.2703,-0.2691,-0.2639,-0.2661,-0.2648,-0.2678,-0.2686,-0.263,-0.2587,-0.2569,-0.2513,-0.2512,-0.2445,-0.2462,-0.2498,-0.2585,-0.2491,-0.2455,-0.2447,-0.257,-0.2572,-0.2573,-0.2575,0,0,-0.2495,-0.2561,-0.2553,-0.26,-0.2615,-0.259,-0.2537,-0.2548,-0.2561,-0.2508,-0.2518,-0.2393,-0.2445,-0.2416,-0.2418,-0.2397,-0.232,-0.2431,-0.2433,-0.2423,-0.2287,-0.2188,-0.217,-0.236,-0.2359,-0.2358,-0.2262,0,-0.2365,-0.2318,-0.2373,-0.2337,-0.2347,-0.2425,-0.2397,-0.2404,-0.2424,-0.2432,-0.2416,-0.2388,-0.2385,-0.2385,-0.2358,-0.2347,-0.2303,-0.2342,-0.2355,-0.2354,-0.2305,-0.2159,-0.2062,-0.196,-0.2255,-0.2253,-0.2252,0,-0.2214,-0.2237,-0.2202,-0.2304,-0.2309,-0.2276,-0.2352,-0.2325,-0.2349,-0.2365,-0.2369,-0.2383,-0.2341,-0.235,-0.2292,-0.2328,-0.2293,-0.2273,-0.227,-0.2218,-0.2241,-0.2108,-0.1936,-0.1936,-0.2241,-0.2242,-0.2243,0,-0.2135,-0.2141,-0.2154,-0.217,-0.2235,-0.2242,-0.2272,-0.2307,-0.2321,-0.2343,-0.2357,-0.2344,-0.2329,-0.2302,-0.225,-0.2283,-0.2183,-0.2228,-0.2095,-0.2088,-0.2026,-0.2014,-0.1888,-0.2166,-0.2166,-0.2166,-0.2167,0,-0.2048,-0.2053,-0.2126,-0.2133,-0.2144,-0.2204,-0.2216,-0.2246,-0.2287,-0.2295,-0.2333,-0.2316,-0.2321,-0.2275,-0.2238,-0.2121,-0.217,-0.2055,-0.2048,-0.198,-0.1966,-0.1986,-0.2034,-0.2163,-0.2164,-0.2164,-0.2165,0,-0.1963,-0.2016,-0.2031,-0.2097,-0.2113,-0.2117,-0.218,-0.2192,-0.2245,-0.2255,-0.2262,-0.2284,-0.2215,-0.2188,-0.2122,-0.208,-0.1954,-0.1942,-0.1841,-0.1821,-0.1698,-0.1745,-0.1644,-0.1595,-0.178,-0.1777,-0.1774,0,-0.192,-0.1921,-0.1982,-0.1988,-0.2012,-0.2041,-0.2061,-0.2144,-0.2169,-0.2215,-0.2209,-0.2167,-0.2086,-0.1947,-0.1866,-0.1751,-0.1803,-0.1623,-0.165,-0.1635,-0.1685,-0.174,-0.1712,-0.1516,-0.1512,-0.1508,-0.1505,0,-0.1824,-0.1847,-0.1862,-0.1883,-0.1903,-0.1935,-0.1979,-0.1998,-0.209,-0.2064,-0.2023,-0.1955,-0.1851,-0.1678,-0.156,-0.1498,-0.1588,-0.154,-0.1562,-0.1476,-0.1494,-0.1462,-0.1632,-0.1472,-0.1475,-0.1478,-0.1479,-0.1481,-0.1732,-0.1721,-0.1745,-0.1751,-0.1784,-0.1807,-0.1762,-0.1792,-0.1763,-0.1646,-0.1743,-0.1498,-0.1557,-0.135,-0.1294,-0.1209,-0.1302,-0.1201,-0.1259,-0.1315,-0.1261,-0.1327,-0.1144,-0.1145,-0.1147,-0.1148,-0.1149,0,-0.1606,-0.1609,-0.1611,-0.1626,-0.162,-0.1674,-0.1676,-0.1572,-0.1424,-0.1293,-0.1145,-0.1015,-0.0958,-0.1,-0.1019,-0.097,-0.0976,-0.0977,-0.1056,-0.104,-0.1112,-0.1093,-0.0844,-0.0844,-0.0844,-0.0844,-0.0844,-0.0844,-0.1537,-0.1493,-0.1501,-0.145,-0.1458,-0.1348,-0.1299,-0.1117,-0.0957,-0.0607,-0.0368,-0.0297,-0.0577,-0.0916,-0.0966,-0.0916,-0.0939,-0.0893,-0.0949,-0.1042,-0.107,-0.1096,-0.1086,-0.084,-0.084,-0.0824,-0.0824,-0.0824]},{"header":{"parameterUnit":"m.s-1","parameterCategory":2,"la1":30.2991,"la2":30.254,"lo1":-89.0895,"lo2":-89.0444,"dy":0.0017,"dx":0.0017,"nx":28,"ny":28,"refTime":"2025-09-14T03:00:00:Z","depth":"0","parameterNumber":3,"parameterNumberName":"V-component_of_CURRENTS"},"data":[0,0,0,0,0,0,0,0,0,0,0,0,0,0,0,0,0,0,0,0,0,0,0,0,0,0,0,0,0,0,0,0,0,0,0,0,0,0,0,0,0,0,0,0,0,0,0,0,0,0,0,0,0,0,0,0,0,0,-0.0079,-0.0078,0,0.0045,0.0047,0.0048,0.0166,0.0167,0.0168,0.017,0.0363,0.0367,0.0371,0,0,0,0,0,0,0,0,0,0,0,0,0,-0.0189,-0.0187,-0.0079,-0.0077,-0.0076,0.0045,0.0047,0.0049,0.0165,0.0167,0.0169,0.017,0.0362,0.0366,0.0371,0,0,0,0,0,0,0,0,0,0,0,0,0,-0.0109,-0.0187,-0.0079,-0.0005,0.0003,0.0044,0.0047,0.0049,0.0165,0.0167,0.0169,0.0171,0.036,0.0366,0.0372,0.0369,0,0,0.039,0.0392,0,0,0,0,0,0,0,0,-0.0114,-0.0105,-0.0017,-0.001,-0.0001,0.009,0.0079,0.0159,0.0165,0.0106,0.017,0.0172,0.0275,0.0288,0.0309,0.0378,0.0386,0.039,0.0394,0.0396,0.0398,0,0,0,0,0,0,0,-0.0119,-0.0109,-0.0028,-0.0016,-0.0006,0.0031,0.0045,0.0095,0.0181,0.0111,0.0119,0.0129,0.0281,0.0303,0.0315,0.0389,0.039,0.0395,0.0399,0.0401,0.0477,0.0476,0,0,0,0,0,0,-0.0142,-0.0115,-0.0032,-0.0024,-0.0056,0.0031,0.0046,0.0061,0.0179,0.0198,0.0127,0.0134,0.0292,0.0308,0.0322,0.0318,0.0396,0.0402,0.0405,0.0479,0.0477,0.0475,0,0,0,0,0,0,-0.0145,-0.0136,-0.0037,-0.0068,-0.0053,0.0031,0.0046,0.0062,0.0088,0.0191,0.0212,0.0137,0.0294,0.0314,0.0357,0.0327,0.0405,0.041,0.0481,0.0478,0.0476,0.0316,0,0,0,0,0,0,-0.0148,-0.0137,-0.0139,-0.007,-0.0053,-0.003,0.0044,0.0063,0.009,0.01,0.0205,0.0225,0.0297,0.0347,0.0363,0.0337,0.0415,0.0483,0.048,0.0477,0.0323,0.0309,0.0296,0,0,0,0,0,-0.0153,-0.0179,-0.0139,-0.0129,-0.0055,-0.0032,-0.002,0.0048,0.0088,0.0082,0.0156,0.0222,0.0341,0.035,0.0369,0.0344,0.0484,0.0481,0.0477,0.0329,0.0311,0.0296,0,0,0,0,0,0,-0.0248,-0.0167,-0.0123,-0.0126,-0.0085,-0.0013,-0.0017,0.0033,0.0087,0.0096,0.0204,0.0227,0.0248,0.0317,0.0325,0.0357,0.0422,0.0422,0.0304,0.0288,0.0274,0.0289,0.0419,0,0,0,0,0,-0.0266,-0.0248,-0.0178,-0.0183,-0.0168,-0.0093,-0.0074,-0.0031,0.0026,0.0052,0.0129,0.0202,0.0245,0.0283,0.0331,0.0354,0.0429,0.035,0.0336,0.0324,0.0348,0.0414,0.0409,0.0464,0.0464,0.0464,0,0,-0.0305,-0.0259,-0.0249,-0.0199,-0.0161,-0.0151,-0.0077,-0.0068,-0.0053,0.0062,0.0098,0.0149,0.0236,0.0254,0.0272,0.0314,0.0341,0.032,0.0309,0.0341,0.041,0.0405,0.0401,0.0462,0.0462,0.0463,0,0,-0.0373,-0.0336,-0.0334,-0.0308,-0.026,-0.0216,-0.0219,-0.0152,-0.0117,-0.0087,-0.0008,0.0033,0.0111,0.0171,0.021,0.0153,0.0254,0.0157,0.0118,0.0179,0.0176,0.0174,0.0231,0.0236,0.0165,0.0165,0.0164,0,-0.0417,-0.0399,-0.034,-0.0338,-0.0322,-0.0251,-0.0257,-0.0225,-0.015,-0.012,-0.0097,0.0016,0.0076,0.0123,0.01,0.0124,0.0177,0.0168,0.0162,0.0162,0.0163,0.0222,0.0229,0.0157,0.0158,0.0158,0.0159,0,-0.0466,-0.0459,-0.0473,-0.0425,-0.0411,-0.0418,-0.036,-0.0341,-0.0294,-0.0237,-0.0193,-0.0115,-0.0033,-0.0031,0.0021,0.0049,0.0088,0.0121,0.0201,0.0147,0.0213,0.0224,0.0145,0.0148,0.015,0.0152,0,0,-0.053,-0.0505,-0.0505,-0.0497,-0.0456,-0.0449,-0.0443,-0.0397,-0.0372,-0.0319,-0.0274,-0.022,-0.0162,-0.0113,-0.0053,0.0003,0.0028,0.006,0.0067,0.0113,0.0163,0.0196,0.0212,0.0056,0.0057,0.0059,0.0195,0,-0.0573,-0.0596,-0.0561,-0.0582,-0.059,-0.0534,-0.0526,-0.0481,-0.0426,-0.0374,-0.0296,-0.0242,-0.0199,-0.0167,-0.0112,0.0003,0.0054,-0.0011,0.0214,0.0221,0.0255,0.0225,0.0275,0.0403,0.0206,0.0208,0.0209,0,-0.0609,-0.0618,-0.0652,-0.0641,-0.0637,-0.064,-0.0598,-0.058,-0.0498,-0.0453,-0.0383,-0.0309,-0.0222,-0.0187,-0.0013,-0.0057,0.004,0.0125,0.0133,0.024,0.0275,0.0433,0.043,0.0567,0.0227,0.0225,0.0224,0,-0.0664,-0.0674,-0.0703,-0.0702,-0.0686,-0.0685,-0.0668,-0.0603,-0.0575,-0.0493,-0.0452,-0.0344,-0.027,-0.0147,0.0021,0.0007,0.022,0.0226,0.0348,0.0351,0.0483,0.0496,0.0647,0.0344,0.0344,0.0344,0.0343,0,-0.0715,-0.0734,-0.0734,-0.0752,-0.0777,-0.0741,-0.0739,-0.0701,-0.0635,-0.0577,-0.0495,-0.0411,-0.0254,-0.0112,0.0017,0.0223,0.0221,0.0353,0.0394,0.0424,0.0429,0.0628,0.0667,0.0349,0.0348,0.0347,0.0346,0,-0.0768,-0.0768,-0.0802,-0.0804,-0.0807,-0.0824,-0.0797,-0.0784,-0.0713,-0.0632,-0.0606,-0.0448,-0.0254,-0.0095,0.0134,0.0237,0.0511,0.0485,0.0504,0.0544,0.0761,0.0787,0.0999,0.1096,0.0636,0.0638,0.064,0,-0.0796,-0.0822,-0.0851,-0.0874,-0.0878,-0.0891,-0.0894,-0.0838,-0.08,-0.0625,-0.0581,-0.0392,-0.021,0.0108,0.0303,0.0527,0.0621,0.0696,0.0675,0.0793,0.0854,0.0865,0.0932,0.0781,0.0783,0.0785,0.0787,0,-0.0847,-0.0855,-0.0884,-0.0939,-0.096,-0.0969,-0.0952,-0.0916,-0.08,-0.0641,-0.0392,-0.023,0.0015,0.0301,0.0514,0.0646,0.08,0.0744,0.088,0.0995,0.1009,0.1115,0.066,0.0805,0.0803,0.0802,0.0801,0.08,-0.0872,-0.0908,-0.0946,-0.0992,-0.102,-0.1001,-0.0916,-0.0824,-0.0648,-0.0305,-0.0203,0.0176,0.037,0.0688,0.0805,0.1022,0.0971,0.1123,0.115,0.1155,0.1237,0.0809,0.0983,0.0982,0.0982,0.0981,0.0981,0,-0.0895,-0.0935,-0.0991,-0.1017,-0.1027,-0.1024,-0.0912,-0.0738,-0.0411,-0.0098,0.0258,0.071,0.094,0.1072,0.1273,0.1429,0.1461,0.1508,0.1555,0.1609,0.1264,0.1259,0.1484,0.1484,0.1483,0.1483,0.1483,0.1483,-0.0906,-0.0963,-0.0996,-0.1009,-0.0998,-0.0844,-0.0715,-0.0423,-0.0139,0.046,0.086,0.1129,0.1268,0.1552,0.1766,0.1794,0.1948,0.192,0.2,0.1769,0.1735,0.1703,0.171,0.2026,0.2027,0.2363,0.2366,0.2369]}],[{"header":{"parameterUnit":"m.s-1","parameterCategory":2,"la1":30.2991,"la2":30.254,"lo1":-89.0895,"lo2":-89.0444,"dy":0.0017,"dx":0.0017,"nx":28,"ny":28,"refTime":"2025-09-14T03:00:00:Z","depth":"2","parameterNumber":2,"parameterNumberName":"U-component_of_CURRENTS"},"data":[0,0,0,0,0,0,0,0,0,0,0,0,0,0,0,0,0,0,0,0,0,0,0,0,0,0,0,0,0,0,0,0,0,0,0,0,0,0,0,0,0,0,0,0,0,0,0,0,0,0,0,0,0,0,0,0,0,0,-0.2242,-0.2243,0,-0.2278,-0.2278,-0.2278,-0.231,-0.231,-0.2311,-0.2312,-0.2369,-0.237,-0.237,0,0,0,0,0,0,0,0,0,0,0,0,0,-0.2188,-0.2189,-0.2242,-0.2243,-0.2244,-0.2278,-0.2278,-0.2278,-0.231,-0.2311,-0.2311,-0.2312,-0.2369,-0.237,-0.237,0,0,0,0,0,0,0,0,0,0,0,0,0,-0.2212,-0.2189,-0.2242,-0.2267,-0.227,-0.2278,-0.2278,-0.2278,-0.2309,-0.2311,-0.2312,-0.2313,-0.2368,-0.2369,-0.2371,-0.2354,0,0,-0.2374,-0.2375,0,0,0,0,0,0,0,0,-0.2211,-0.2214,-0.2262,-0.2265,-0.2269,-0.2295,-0.228,-0.2306,-0.2309,-0.2289,-0.2312,-0.2313,-0.2348,-0.2351,-0.2348,-0.2357,-0.2359,-0.2374,-0.2375,-0.2376,-0.2376,0,0,0,0,0,0,0,-0.2209,-0.2212,-0.2252,-0.2263,-0.2267,-0.2273,-0.2277,-0.2285,-0.2309,-0.2291,-0.2295,-0.2306,-0.235,-0.2347,-0.235,-0.236,-0.2374,-0.2375,-0.2376,-0.2377,-0.236,-0.2359,0,0,0,0,0,0,-0.2214,-0.2211,-0.2251,-0.2253,-0.2247,-0.2273,-0.2278,-0.2281,-0.2308,-0.2315,-0.2305,-0.2307,-0.2344,-0.2349,-0.2352,-0.2358,-0.2376,-0.2377,-0.2377,-0.2361,-0.236,-0.2359,0,0,0,0,0,0,-0.2212,-0.2216,-0.2249,-0.2237,-0.2242,-0.2273,-0.2277,-0.2282,-0.2291,-0.2319,-0.2325,-0.2312,-0.2346,-0.2351,-0.2356,-0.236,-0.2377,-0.2378,-0.2363,-0.2361,-0.2359,-0.2354,0,0,0,0,0,0,-0.221,-0.2215,-0.2212,-0.2237,-0.2243,-0.2261,-0.2276,-0.2282,-0.2298,-0.2302,-0.2327,-0.2333,-0.2347,-0.2354,-0.2357,-0.2362,-0.2379,-0.2364,-0.2362,-0.236,-0.2356,-0.2353,-0.235,0,0,0,0,0,-0.2208,-0.2213,-0.2211,-0.2217,-0.224,-0.2262,-0.2265,-0.2288,-0.2297,-0.23,-0.2308,-0.2333,-0.2343,-0.2354,-0.2358,-0.2363,-0.2365,-0.2363,-0.236,-0.2357,-0.2353,-0.235,0,0,0,0,0,0,-0.2189,-0.2218,-0.2217,-0.2229,-0.2244,-0.2269,-0.2276,-0.2288,-0.2295,-0.23,-0.232,-0.2325,-0.2333,-0.2338,-0.235,-0.2347,-0.2357,-0.2355,-0.2353,-0.235,-0.2347,-0.2347,-0.238,0,0,0,0,0,-0.2181,-0.2193,-0.2214,-0.2223,-0.2228,-0.2247,-0.2257,-0.2274,-0.2289,-0.2294,-0.2309,-0.2317,-0.2321,-0.2329,-0.2334,-0.2333,-0.2324,-0.2335,-0.2332,-0.233,-0.2329,-0.2319,-0.2316,-0.235,-0.235,-0.235,0,0,-0.2178,-0.2194,-0.2201,-0.2219,-0.2229,-0.2239,-0.2255,-0.2276,-0.2284,-0.2298,-0.2307,-0.2311,-0.2317,-0.2317,-0.232,-0.2326,-0.2308,-0.2326,-0.2325,-0.2325,-0.2316,-0.2313,-0.231,-0.2349,-0.2349,-0.2349,0,0,-0.2175,-0.2186,-0.2189,-0.2203,-0.2224,-0.2238,-0.2245,-0.2267,-0.2276,-0.2282,-0.229,-0.2288,-0.2302,-0.23,-0.2302,-0.228,-0.2294,-0.2287,-0.2277,-0.2268,-0.2265,-0.2263,-0.2225,-0.222,-0.2286,-0.2286,-0.2286,0,-0.2168,-0.2172,-0.2193,-0.2198,-0.2212,-0.2238,-0.2243,-0.2254,-0.2275,-0.2279,-0.2287,-0.2289,-0.2291,-0.2287,-0.2276,-0.2276,-0.2267,-0.2297,-0.2266,-0.2264,-0.2262,-0.2223,-0.2218,-0.2285,-0.2285,-0.2285,-0.2285,0,-0.2155,-0.2167,-0.2173,-0.2186,-0.2202,-0.2216,-0.2239,-0.225,-0.2265,-0.2275,-0.2278,-0.2272,-0.2275,-0.2271,-0.2268,-0.2255,-0.2249,-0.2266,-0.2281,-0.2258,-0.2218,-0.2213,-0.2285,-0.2285,-0.2285,-0.2285,0,0,-0.2109,-0.2156,-0.2153,-0.2165,-0.2199,-0.2213,-0.223,-0.2247,-0.2258,-0.2268,-0.2272,-0.2261,-0.2265,-0.2263,-0.226,-0.2244,-0.2206,-0.2249,-0.2249,-0.2221,-0.2168,-0.2071,-0.2055,-0.2229,-0.2229,-0.2228,-0.2138,0,-0.2085,-0.2102,-0.213,-0.2148,-0.2159,-0.2198,-0.2214,-0.2238,-0.2255,-0.2265,-0.2262,-0.2264,-0.2262,-0.226,-0.2245,-0.2224,-0.2194,-0.2227,-0.2185,-0.2183,-0.2109,-0.2046,-0.191,-0.1811,-0.2132,-0.2131,-0.213,0,-0.204,-0.2066,-0.2083,-0.2139,-0.2145,-0.216,-0.2195,-0.2214,-0.224,-0.2254,-0.2262,-0.2269,-0.2246,-0.2248,-0.2199,-0.2226,-0.219,-0.2168,-0.2164,-0.2075,-0.2075,-0.1888,-0.1788,-0.212,-0.2121,-0.2122,-0.2123,0,-0.1982,-0.2027,-0.2045,-0.2061,-0.2125,-0.2137,-0.2166,-0.2203,-0.2218,-0.2243,-0.2253,-0.2249,-0.2234,-0.221,-0.2159,-0.2185,-0.2094,-0.2127,-0.2,-0.1993,-0.1865,-0.1847,-0.2079,-0.2079,-0.208,-0.208,-0.208,0,-0.1941,-0.1951,-0.2021,-0.203,-0.2046,-0.2104,-0.2121,-0.2152,-0.2192,-0.2193,-0.2238,-0.2222,-0.2227,-0.2183,-0.2148,-0.2035,-0.2083,-0.1973,-0.1958,-0.1855,-0.1837,-0.211,-0.2115,-0.2076,-0.2077,-0.2078,-0.2078,0,-0.1866,-0.1917,-0.1937,-0.2002,-0.2019,-0.2027,-0.2089,-0.2101,-0.2155,-0.2156,-0.2162,-0.2189,-0.2122,-0.21,-0.2035,-0.1995,-0.1918,-0.1866,-0.1726,-0.1695,-0.1827,-0.1832,-0.1718,-0.1714,-0.171,-0.1707,-0.1705,0,-0.1829,-0.1833,-0.1894,-0.1901,-0.1927,-0.1959,-0.1977,-0.2058,-0.2072,-0.2113,-0.2097,-0.2065,-0.1991,-0.1867,-0.1781,-0.1675,-0.178,-0.1516,-0.1536,-0.179,-0.1787,-0.1799,-0.1809,-0.1357,-0.1352,-0.1348,-0.1345,0,-0.1745,-0.1767,-0.1785,-0.1805,-0.1825,-0.1849,-0.1883,-0.1891,-0.1967,-0.1974,-0.1937,-0.1884,-0.1763,-0.1581,-0.1467,-0.1405,-0.1527,-0.1424,-0.1715,-0.1474,-0.1443,-0.1444,-0.1466,-0.1307,-0.1311,-0.1313,-0.1315,-0.1317,-0.1664,-0.1654,-0.1677,-0.1681,-0.1708,-0.1705,-0.1663,-0.1713,-0.1708,-0.1674,-0.1729,-0.1607,-0.1546,-0.1277,-0.1176,-0.1111,-0.1225,-0.1201,-0.1217,-0.1237,-0.1215,-0.1181,-0.0989,-0.0991,-0.0992,-0.0994,-0.0995,0,-0.155,-0.155,-0.1551,-0.1541,-0.1505,-0.1571,-0.1566,-0.1501,-0.1433,-0.1451,-0.1401,-0.1215,-0.1072,-0.1022,-0.0843,-0.0798,-0.0823,-0.0785,-0.0833,-0.0869,-0.0901,-0.0867,-0.0545,-0.0544,-0.0543,-0.0542,0,0,-0.1489,-0.1445,-0.1447,-0.1338,-0.1324,-0.1223,-0.1183,-0.1126,-0.11,-0.1016,-0.0971,-0.1032,-0.0998,-0.0792,-0.0718,-0.0602,-0.0739,-0.0569,-0.0926,-0.1018,-0.105,-0.1129,-0.1113,0,0,0,0,0]},{"header":{"parameterUnit":"m.s-1","parameterCategory":2,"la1":30.2991,"la2":30.254,"lo1":-89.0895,"lo2":-89.0444,"dy":0.0017,"dx":0.0017,"nx":28,"ny":28,"refTime":"2025-09-14T03:00:00:Z","depth":"2","parameterNumber":3,"parameterNumberName":"V-component_of_CURRENTS"},"data":[0,0,0,0,0,0,0,0,0,0,0,0,0,0,0,0,0,0,0,0,0,0,0,0,0,0,0,0,0,0,0,0,0,0,0,0,0,0,0,0,0,0,0,0,0,0,0,0,0,0,0,0,0,0,0,0,0,0,-0.0409,-0.0408,0,-0.0325,-0.0324,-0.0323,-0.0272,-0.0272,-0.0271,-0.0271,-0.0131,-0.0128,-0.0124,0,0,0,0,0,0,0,0,0,0,0,0,0,-0.0476,-0.0475,-0.0409,-0.0408,-0.0407,-0.0325,-0.0324,-0.0323,-0.0272,-0.0272,-0.0271,-0.0271,-0.0132,-0.0128,-0.0124,0,0,0,0,0,0,0,0,0,0,0,0,0,-0.0427,-0.0475,-0.041,-0.037,-0.0366,-0.0325,-0.0324,-0.0323,-0.0272,-0.0272,-0.0271,-0.027,-0.0133,-0.0129,-0.0124,-0.0105,0,0,-0.0108,-0.0106,0,0,0,0,0,0,0,0,-0.0429,-0.0424,-0.0377,-0.0373,-0.0368,-0.0307,-0.0296,-0.0247,-0.0272,-0.031,-0.0271,-0.027,-0.0184,-0.0175,-0.0164,-0.0099,-0.0093,-0.0108,-0.0105,-0.0103,-0.0101,0,0,0,0,0,0,0,-0.0433,-0.0427,-0.0378,-0.0376,-0.037,-0.0339,-0.0333,-0.0287,-0.0252,-0.0306,-0.0302,-0.029,-0.0181,-0.0169,-0.016,-0.0091,-0.0108,-0.0104,-0.01,-0.0099,0.0028,0.0029,0,0,0,0,0,0,-0.0443,-0.0431,-0.038,-0.0375,-0.0396,-0.0339,-0.0331,-0.0328,-0.0253,-0.0241,-0.0291,-0.0288,-0.0177,-0.0166,-0.0154,-0.0106,-0.0103,-0.0098,-0.0095,0.0028,0.0029,0.0029,0,0,0,0,0,0,-0.0445,-0.044,-0.0384,-0.0399,-0.0389,-0.0339,-0.0336,-0.0327,-0.0308,-0.0242,-0.0229,-0.028,-0.0176,-0.0162,-0.0115,-0.0101,-0.0096,-0.0091,0.0028,0.0028,0.0029,-0.0024,0,0,0,0,0,0,-0.0448,-0.0442,-0.044,-0.04,-0.0389,-0.0356,-0.0336,-0.0326,-0.0301,-0.0297,-0.0228,-0.0215,-0.0175,-0.0123,-0.011,-0.0094,-0.0087,0.0027,0.0028,0.0029,-0.0023,-0.0025,-0.0027,0,0,0,0,0,-0.0451,-0.0448,-0.0441,-0.0435,-0.0391,-0.0356,-0.0348,-0.031,-0.0302,-0.0292,-0.0252,-0.0217,-0.0109,-0.0119,-0.0104,-0.0086,0.0027,0.0028,0.0028,-0.0021,-0.0025,-0.0027,0,0,0,0,0,0,-0.0471,-0.0441,-0.0433,-0.0421,-0.0391,-0.0347,-0.0332,-0.0313,-0.0275,-0.0271,-0.0215,-0.0199,-0.0151,-0.0114,-0.0127,-0.0047,-0.0033,-0.003,-0.0076,-0.0079,-0.0081,-0.0094,-0.0083,0,0,0,0,0,-0.0479,-0.0472,-0.0437,-0.0427,-0.0416,-0.0378,-0.0359,-0.0336,-0.0298,-0.0281,-0.0236,-0.0185,-0.0137,-0.0106,-0.0059,-0.0019,0.002,0.0004,0.0001,-0.0001,-0.0001,0.0059,0.0062,0.0032,0.0032,0.0032,0,0,-0.0483,-0.0466,-0.0461,-0.0431,-0.0408,-0.0394,-0.0365,-0.0339,-0.0323,-0.0271,-0.0236,-0.0191,-0.0129,-0.0084,-0.0058,-0.005,0.0028,0.0,-0.0003,-0.0001,0.0061,0.0064,0.0066,0.0032,0.0032,0.0032,0,0,-0.0492,-0.0477,-0.0477,-0.0458,-0.0425,-0.0401,-0.0396,-0.0355,-0.0332,-0.0296,-0.0254,-0.0206,-0.0136,-0.0088,-0.0055,-0.0041,0.0011,-0.0023,-0.0041,0.0017,0.002,0.0023,0.0072,0.0079,-0.0022,-0.0022,-0.0022,0,-0.05,-0.0498,-0.0469,-0.0464,-0.0452,-0.0409,-0.0408,-0.0376,-0.0324,-0.0304,-0.029,-0.0188,-0.0135,-0.0075,-0.0071,-0.0045,-0.001,-0.0038,0.0013,0.0017,0.0021,0.007,0.0079,-0.0025,-0.0025,-0.0024,-0.0024,0,-0.051,-0.0508,-0.0505,-0.0492,-0.0472,-0.0462,-0.0421,-0.0398,-0.0369,-0.0333,-0.0273,-0.0207,-0.0147,-0.0119,-0.0089,-0.0033,-0.0018,-0.0001,0.0016,0.0021,0.0073,0.0083,-0.0028,-0.0027,-0.0027,-0.0026,0,0,-0.0535,-0.0519,-0.052,-0.0525,-0.0491,-0.0479,-0.0452,-0.0415,-0.0397,-0.0338,-0.0307,-0.0222,-0.0189,-0.015,-0.0101,-0.0046,0.0012,-0.0018,-0.0014,0.0022,0.0135,0.0153,0.0167,0.0035,0.0037,0.0038,0.0158,0,-0.0557,-0.057,-0.0546,-0.0553,-0.056,-0.0517,-0.0498,-0.0456,-0.0409,-0.0366,-0.0288,-0.0238,-0.0199,-0.0172,-0.0112,-0.0017,0.0038,-0.0022,0.0133,0.0137,0.0146,0.0179,0.0155,0.026,0.0168,0.017,0.0171,0,-0.0579,-0.0587,-0.0606,-0.06,-0.0597,-0.059,-0.0557,-0.0531,-0.0455,-0.0417,-0.0353,-0.0291,-0.0203,-0.0175,-0.0014,-0.0056,0.0031,0.0106,0.0113,0.0156,0.0176,0.0243,0.0283,0.019,0.0188,0.0187,0.0186,0,-0.0628,-0.0629,-0.0651,-0.0649,-0.063,-0.0628,-0.0612,-0.0551,-0.0527,-0.045,-0.0419,-0.0313,-0.0249,-0.0133,0.0015,0.0003,0.0195,0.02,0.0301,0.0303,0.0327,0.0328,0.0315,0.0315,0.0314,0.0314,0.0314,0,-0.0668,-0.0684,-0.068,-0.0694,-0.0716,-0.068,-0.0678,-0.0643,-0.0582,-0.0541,-0.0455,-0.039,-0.0234,-0.0107,0.0013,0.0193,0.0197,0.0308,0.0341,0.0308,0.0306,0.0278,0.0273,0.0319,0.0318,0.0317,0.0316,0,-0.0718,-0.0715,-0.0742,-0.0741,-0.0743,-0.0759,-0.0736,-0.0725,-0.0661,-0.0603,-0.0581,-0.0434,-0.0263,-0.0106,0.0106,0.02,0.036,0.0422,0.0366,0.039,0.0426,0.0416,0.0544,0.0546,0.0548,0.0549,0.055,0,-0.0744,-0.0765,-0.0789,-0.0812,-0.0815,-0.0828,-0.0833,-0.0779,-0.0752,-0.0616,-0.0586,-0.0415,-0.0273,0.0025,0.0219,0.043,0.0426,0.0522,0.0497,0.0434,0.0453,0.0441,0.0429,0.0511,0.0511,0.0512,0.0512,0,-0.0791,-0.0799,-0.0823,-0.0878,-0.0899,-0.0914,-0.0906,-0.0894,-0.0801,-0.0738,-0.0596,-0.0471,-0.0169,0.007,0.0332,0.0449,0.048,0.0539,0.0515,0.0446,0.041,0.0426,0.0414,0.0517,0.0517,0.0516,0.0516,0.0516,-0.0818,-0.0853,-0.0888,-0.0934,-0.0965,-0.0979,-0.0982,-0.0943,-0.0893,-0.0762,-0.0626,-0.0418,-0.0165,0.0209,0.0395,0.0558,0.0562,0.0597,0.0593,0.0588,0.0553,0.052,0.0642,0.0642,0.0642,0.0642,0.0642,0,-0.0848,-0.0885,-0.0939,-0.0987,-0.1023,-0.1025,-0.1013,-0.0978,-0.0911,-0.0765,-0.0623,-0.0335,-0.0061,0.0192,0.0463,0.0624,0.06,0.0637,0.0578,0.0574,0.0569,0.053,0.0615,0.0615,0.0615,0.0615,0,0,-0.0863,-0.092,-0.095,-0.1017,-0.1049,-0.1066,-0.1054,-0.0986,-0.0874,-0.072,-0.0566,-0.0367,-0.0033,0.0142,0.0352,0.0495,0.0484,0.0499,0.0508,0.0411,0.0404,0.0539,0.0473,0,0,0,0,0]}],[{"header":{"parameterUnit":"m.s-1","parameterCategory":2,"la1":30.2991,"la2":30.254,"lo1":-89.0895,"lo2":-89.0444,"dy":0.0017,"dx":0.0017,"nx":28,"ny":28,"refTime":"2025-09-14T03:00:00:Z","depth":"4","parameterNumber":2,"parameterNumberName":"U-component_of_CURRENTS"},"data":[0,0,0,0,0,0,0,0,0,0,0,0,0,0,0,0,0,0,0,0,0,0,0,0,0,0,0,0,0,0,0,0,0,0,0,0,0,0,0,0,0,0,0,0,0,0,0,0,0,0,0,0,0,0,0,0,0,0,-0.1521,-0.1522,0,-0.1568,-0.1569,-0.1569,-0.1605,-0.1605,-0.1605,-0.1606,-0.1663,-0.1664,-0.1665,0,0,0,0,0,0,0,0,0,0,0,0,0,-0.1436,-0.1437,-0.1521,-0.1522,-0.1522,-0.1568,-0.1569,-0.1569,-0.1605,-0.1605,-0.1606,-0.1606,-0.1663,-0.1664,-0.1665,0,0,0,0,0,0,0,0,0,0,0,0,0,-0.1476,-0.1438,-0.1521,-0.1546,-0.1549,-0.1568,-0.1569,-0.1569,-0.1604,-0.1605,-0.1606,-0.1606,-0.1662,-0.1664,-0.1666,-0.1663,0,0,-0.1671,-0.1671,0,0,0,0,0,0,0,0,-0.1474,-0.1479,-0.1542,-0.1545,-0.1548,-0.1582,-0.156,-0.1602,-0.1604,-0.1582,-0.1606,-0.1607,-0.1637,-0.1641,-0.1647,-0.1666,-0.1668,-0.1671,-0.1672,-0.1673,-0.1673,0,0,0,0,0,0,0,-0.1471,-0.1477,-0.1539,-0.1543,-0.1546,-0.1547,-0.1553,-0.1567,-0.1605,-0.1584,-0.1587,-0.1594,-0.1639,-0.1645,-0.1648,-0.1669,-0.1671,-0.1672,-0.1673,-0.1674,-0.1746,-0.1747,0,0,0,0,0,0,-0.1468,-0.1475,-0.1537,-0.154,-0.1513,-0.1548,-0.1555,-0.157,-0.1605,-0.1611,-0.1593,-0.1595,-0.1642,-0.1646,-0.165,-0.1716,-0.1673,-0.1674,-0.1675,-0.1745,-0.1746,-0.1747,0,0,0,0,0,0,-0.1466,-0.1474,-0.1535,-0.1509,-0.1517,-0.1549,-0.1565,-0.157,-0.1605,-0.1612,-0.1618,-0.1626,-0.1642,-0.1648,-0.169,-0.1716,-0.1675,-0.1676,-0.1744,-0.1746,-0.1747,-0.1804,0,0,0,0,0,0,-0.1464,-0.1473,-0.1494,-0.1509,-0.1518,-0.1569,-0.1564,-0.1571,-0.1607,-0.1611,-0.1641,-0.1646,-0.1643,-0.1688,-0.1692,-0.1717,-0.1678,-0.1743,-0.1745,-0.1747,-0.1801,-0.1807,-0.1812,0,0,0,0,0,-0.1461,-0.1485,-0.1495,-0.1503,-0.1543,-0.1571,-0.1576,-0.1599,-0.1608,-0.1632,-0.1652,-0.1646,-0.1701,-0.169,-0.1695,-0.1721,-0.1742,-0.1744,-0.1746,-0.1798,-0.1806,-0.1812,0,0,0,0,0,0,-0.1465,-0.1492,-0.1502,-0.1537,-0.1562,-0.1578,-0.1602,-0.1616,-0.1649,-0.1661,-0.1664,-0.167,-0.1716,-0.1709,-0.1697,-0.1745,-0.1718,-0.1721,-0.1756,-0.1763,-0.1769,-0.1752,-0.1679,0,0,0,0,0,-0.1473,-0.1502,-0.1523,-0.1556,-0.1568,-0.159,-0.1608,-0.1627,-0.1651,-0.1668,-0.1687,-0.1704,-0.1722,-0.1737,-0.1752,-0.1782,-0.1753,-0.1799,-0.1804,-0.1809,-0.1798,-0.1786,-0.179,-0.1754,-0.1754,-0.1754,0,0,-0.1487,-0.1504,-0.1524,-0.1559,-0.1578,-0.1603,-0.1604,-0.1644,-0.1671,-0.1668,-0.1718,-0.1732,-0.1736,-0.177,-0.1789,-0.1772,-0.1804,-0.1812,-0.1816,-0.1802,-0.1789,-0.1792,-0.1795,-0.1756,-0.1755,-0.1755,0,0,-0.151,-0.1541,-0.1564,-0.1587,-0.1623,-0.1636,-0.1654,-0.1686,-0.171,-0.1755,-0.1757,-0.1783,-0.182,-0.1818,-0.1822,-0.1866,-0.1838,-0.188,-0.1894,-0.1884,-0.1887,-0.1889,-0.1852,-0.185,-0.1879,-0.1879,-0.1879,0,-0.1527,-0.1554,-0.1578,-0.1601,-0.1622,-0.1653,-0.168,-0.1707,-0.1753,-0.1768,-0.1782,-0.1826,-0.1835,-0.1856,-0.1871,-0.1879,-0.1861,-0.1871,-0.1891,-0.1892,-0.1893,-0.1855,-0.1853,-0.1882,-0.1881,-0.1881,-0.1881,0,-0.1548,-0.1585,-0.1602,-0.1639,-0.1668,-0.1701,-0.1734,-0.1772,-0.1805,-0.1822,-0.1869,-0.1882,-0.1898,-0.1913,-0.1908,-0.1922,-0.1903,-0.1904,-0.1873,-0.19,-0.1859,-0.1855,-0.1886,-0.1885,-0.1884,-0.1883,0,0,-0.1538,-0.1605,-0.1611,-0.1635,-0.1691,-0.1713,-0.1765,-0.1803,-0.1828,-0.1879,-0.1901,-0.1938,-0.1943,-0.1945,-0.1947,-0.194,-0.1933,-0.1928,-0.1926,-0.1889,-0.1896,-0.1764,-0.1747,-0.1947,-0.1946,-0.1946,-0.1863,0,-0.1545,-0.1592,-0.1625,-0.1678,-0.1701,-0.1749,-0.1788,-0.1833,-0.187,-0.1901,-0.1921,-0.1949,-0.1957,-0.1969,-0.1967,-0.1942,-0.1926,-0.1954,-0.1876,-0.1873,-0.175,-0.1739,-0.1946,-0.1859,-0.1858,-0.1858,-0.1857,0,-0.1532,-0.157,-0.1621,-0.1689,-0.1703,-0.1744,-0.1801,-0.1842,-0.1891,-0.1918,-0.1949,-0.1964,-0.1968,-0.1972,-0.1939,-0.1961,-0.1929,-0.1907,-0.1904,-0.1753,-0.1733,-0.1827,-0.1849,-0.185,-0.185,-0.1851,-0.1851,0,-0.1481,-0.1558,-0.16,-0.1625,-0.1709,-0.1744,-0.1789,-0.1847,-0.1875,-0.1925,-0.1942,-0.1961,-0.1961,-0.1944,-0.1903,-0.1926,-0.1846,-0.187,-0.1718,-0.1708,-0.1829,-0.1828,-0.1836,-0.1836,-0.1836,-0.1836,-0.1837,0,-0.1449,-0.1484,-0.1586,-0.1608,-0.1655,-0.1724,-0.1772,-0.1817,-0.1873,-0.188,-0.1944,-0.1932,-0.1956,-0.1919,-0.1891,-0.177,-0.1834,-0.1698,-0.1672,-0.1855,-0.1858,-0.1826,-0.1826,-0.1833,-0.1834,-0.1834,-0.1835,0,-0.1377,-0.1448,-0.15,-0.16,-0.1632,-0.1665,-0.1757,-0.1777,-0.1848,-0.1856,-0.187,-0.1901,-0.1839,-0.1832,-0.1776,-0.1723,-0.1644,-0.1588,-0.1754,-0.1744,-0.1518,-0.1522,-0.1406,-0.1401,-0.1396,-0.1392,-0.1389,0,-0.1341,-0.1364,-0.1477,-0.1504,-0.1554,-0.162,-0.1652,-0.1747,-0.1758,-0.1807,-0.1782,-0.1764,-0.176,-0.1563,-0.1587,-0.15,-0.1491,-0.1449,-0.1507,-0.1483,-0.1471,-0.1483,-0.1493,-0.1382,-0.1381,-0.1379,-0.1378,0,-0.1265,-0.132,-0.1362,-0.1419,-0.1468,-0.1508,-0.156,-0.1555,-0.1632,-0.172,-0.1632,-0.1586,-0.1503,-0.1449,-0.1382,-0.1336,-0.1479,-0.1401,-0.1411,-0.1466,-0.1453,-0.1448,-0.1463,-0.1362,-0.1364,-0.1366,-0.1367,0,-0.1204,-0.1213,-0.1273,-0.1305,-0.1363,-0.1355,-0.1408,-0.1402,-0.1426,-0.1489,-0.1447,-0.1432,-0.1465,-0.1359,-0.1301,-0.1235,-0.123,-0.121,-0.1231,-0.1249,-0.1238,-0.1201,-0.0987,0,0,0,0,0,-0.1132,-0.1125,-0.1149,-0.1168,-0.1216,-0.1241,-0.1318,-0.1371,-0.145,-0.1342,-0.1391,-0.1306,-0.1213,-0.1217,-0.1111,-0.1233,-0.1239,-0.1108,-0.123,-0.1273,-0.1292,-0.1294,0,0,0,0,0,0,-0.1083,-0.1103,-0.1105,-0.104,-0.1021,-0.1049,-0.109,-0.115,-0.1103,-0.119,-0.1139,-0.1217,-0.1141,-0.1225,-0.1073,-0.1074,-0.1123,-0.112,-0.1116,-0.1262,-0.1279,-0.1294,-0.1304,0,0,0,0,0]},{"header":{"parameterUnit":"m.s-1","parameterCategory":2,"la1":30.2991,"la2":30.254,"lo1":-89.0895,"lo2":-89.0444,"dy":0.0017,"dx":0.0017,"nx":28,"ny":28,"refTime":"2025-09-14T03:00:00:Z","depth":"4","parameterNumber":3,"parameterNumberName":"V-component_of_CURRENTS"},"data":[0,0,0,0,0,0,0,0,0,0,0,0,0,0,0,0,0,0,0,0,0,0,0,0,0,0,0,0,0,0,0,0,0,0,0,0,0,0,0,0,0,0,0,0,0,0,0,0,0,0,0,0,0,0,0,0,0,0,-0.0336,-0.0336,0,-0.0295,-0.0294,-0.0294,-0.0278,-0.0278,-0.0278,-0.0278,-0.0213,-0.0212,-0.021,0,0,0,0,0,0,0,0,0,0,0,0,0,-0.0362,-0.0362,-0.0336,-0.0336,-0.0335,-0.0295,-0.0294,-0.0294,-0.0278,-0.0278,-0.0278,-0.0279,-0.0214,-0.0212,-0.021,0,0,0,0,0,0,0,0,0,0,0,0,0,-0.0339,-0.0362,-0.0336,-0.0323,-0.0321,-0.0295,-0.0294,-0.0294,-0.0278,-0.0278,-0.0278,-0.0279,-0.0215,-0.0212,-0.0209,-0.0188,0,0,-0.0201,-0.0199,0,0,0,0,0,0,0,0,-0.034,-0.0338,-0.0325,-0.0324,-0.0322,-0.0292,-0.028,-0.0257,-0.0278,-0.0294,-0.0278,-0.0279,-0.0237,-0.0233,-0.0225,-0.0185,-0.0182,-0.02,-0.0199,-0.0198,-0.0197,0,0,0,0,0,0,0,-0.0342,-0.0339,-0.032,-0.0325,-0.0323,-0.0305,-0.0302,-0.0275,-0.0264,-0.0293,-0.0292,-0.0287,-0.0236,-0.0227,-0.0223,-0.0181,-0.0201,-0.0198,-0.0196,-0.0195,-0.0114,-0.0114,0,0,0,0,0,0,-0.0349,-0.0341,-0.0321,-0.0318,-0.0332,-0.0305,-0.0302,-0.0301,-0.0265,-0.026,-0.0287,-0.0287,-0.0232,-0.0226,-0.022,-0.0187,-0.0198,-0.0195,-0.0193,-0.0115,-0.0114,-0.0114,0,0,0,0,0,0,-0.035,-0.0348,-0.0323,-0.0329,-0.0324,-0.0304,-0.0304,-0.03,-0.0294,-0.0261,-0.0256,-0.0285,-0.0232,-0.0224,-0.02,-0.0184,-0.0194,-0.0191,-0.0115,-0.0115,-0.0114,-0.0123,0,0,0,0,0,0,-0.0351,-0.0349,-0.0351,-0.0329,-0.0324,-0.0309,-0.0303,-0.0299,-0.0291,-0.029,-0.0257,-0.0251,-0.0232,-0.0204,-0.0197,-0.0181,-0.0189,-0.0116,-0.0115,-0.0114,-0.0123,-0.0123,-0.0122,0,0,0,0,0,-0.0352,-0.0353,-0.0352,-0.0349,-0.0328,-0.0309,-0.0305,-0.0291,-0.0291,-0.0287,-0.0267,-0.0253,-0.0193,-0.0202,-0.0194,-0.0176,-0.0116,-0.0115,-0.0114,-0.0124,-0.0123,-0.0122,0,0,0,0,0,0,-0.0363,-0.0351,-0.0349,-0.0346,-0.0331,-0.0307,-0.0303,-0.0293,-0.0275,-0.0275,-0.0248,-0.0241,-0.0211,-0.0195,-0.0205,-0.015,-0.0151,-0.0149,-0.0161,-0.016,-0.016,-0.0171,-0.0187,0,0,0,0,0,-0.0368,-0.0368,-0.0351,-0.0348,-0.0344,-0.0325,-0.0316,-0.0306,-0.0287,-0.0279,-0.0257,-0.023,-0.0198,-0.0183,-0.0155,-0.0128,-0.0105,-0.0111,-0.011,-0.011,-0.0113,-0.0061,-0.0056,-0.011,-0.011,-0.011,0,0,-0.0372,-0.0365,-0.0365,-0.0351,-0.034,-0.0332,-0.032,-0.0309,-0.0298,-0.0274,-0.0255,-0.0227,-0.0191,-0.0159,-0.0144,-0.0145,-0.0082,-0.0109,-0.0109,-0.0112,-0.0059,-0.0054,-0.0049,-0.011,-0.011,-0.011,0,0,-0.0379,-0.0375,-0.0377,-0.0368,-0.0353,-0.0339,-0.0338,-0.0316,-0.0303,-0.0281,-0.0257,-0.0222,-0.0185,-0.0149,-0.0127,-0.0106,-0.0081,-0.01,-0.0104,-0.0053,-0.0048,-0.0043,-0.0009,-0.0001,-0.0099,-0.0099,-0.0099,0,-0.0385,-0.0387,-0.0374,-0.0372,-0.0367,-0.0345,-0.0344,-0.0323,-0.0295,-0.0282,-0.0279,-0.0209,-0.0176,-0.0126,-0.0119,-0.0103,-0.0081,-0.011,-0.0052,-0.0047,-0.0042,-0.0008,0.0001,-0.01,-0.01,-0.01,-0.01,0,-0.0391,-0.0394,-0.0394,-0.0388,-0.0378,-0.0374,-0.0348,-0.0334,-0.0318,-0.0294,-0.025,-0.0203,-0.0164,-0.014,-0.0122,-0.0069,-0.0068,-0.0057,-0.0055,-0.0037,-0.0002,0.0007,-0.01,-0.01,-0.01,-0.01,0,0,-0.0407,-0.0402,-0.0404,-0.041,-0.039,-0.0385,-0.0364,-0.0338,-0.0327,-0.0286,-0.0263,-0.0194,-0.0173,-0.0147,-0.0111,-0.0064,-0.0004,-0.0052,-0.0049,-0.0021,0.0095,0.0073,0.0081,0.0014,0.0016,0.0017,0.0105,0,-0.042,-0.0432,-0.0418,-0.0426,-0.0432,-0.0406,-0.0392,-0.0362,-0.0332,-0.0301,-0.0238,-0.0203,-0.0173,-0.0155,-0.0101,-0.0031,0.002,-0.003,0.0076,0.0079,0.0055,0.0091,0.0022,0.0111,0.0114,0.0115,0.0116,0,-0.0433,-0.0442,-0.0458,-0.0458,-0.0457,-0.0456,-0.0437,-0.0418,-0.0362,-0.0336,-0.0285,-0.024,-0.0165,-0.0144,-0.0013,-0.005,0.002,0.0077,0.0082,0.0069,0.0074,0.0092,0.0133,0.0132,0.0131,0.013,0.0129,0,-0.0464,-0.0469,-0.0489,-0.049,-0.0481,-0.0484,-0.0477,-0.0435,-0.0419,-0.0361,-0.0343,-0.0251,-0.0205,-0.0107,0.0006,-0.0002,0.0148,0.0154,0.0204,0.0202,0.0199,0.0193,0.0255,0.0255,0.0255,0.0254,0.0254,0,-0.0485,-0.0501,-0.0512,-0.0524,-0.0549,-0.0525,-0.0534,-0.0509,-0.0467,-0.0442,-0.0371,-0.0326,-0.0193,-0.0094,0.0004,0.0128,0.0151,0.0209,0.0229,0.0192,0.0184,0.0205,0.0198,0.0258,0.0257,0.0256,0.0256,0,-0.0512,-0.0518,-0.0547,-0.0559,-0.0568,-0.0587,-0.0587,-0.0583,-0.054,-0.0505,-0.0488,-0.0372,-0.0243,-0.0113,0.0059,0.0122,0.0244,0.0285,0.0227,0.0242,0.0263,0.0254,0.0345,0.0345,0.0345,0.0345,0.0345,0,-0.0524,-0.0544,-0.0586,-0.0615,-0.0627,-0.0651,-0.0665,-0.0631,-0.0617,-0.0526,-0.0507,-0.0379,-0.0291,-0.0072,0.0066,0.0245,0.027,0.0319,0.03,0.0264,0.0275,0.0267,0.0258,0.0345,0.0345,0.0345,0.0345,0,-0.0548,-0.0571,-0.0597,-0.0663,-0.0697,-0.0723,-0.0734,-0.0724,-0.0664,-0.0629,-0.0511,-0.0386,-0.0237,-0.0068,0.0069,0.02,0.0276,0.032,0.0321,0.0304,0.0266,0.0275,0.0266,0.0345,0.0345,0.0345,0.0345,0,-0.0568,-0.06,-0.0646,-0.0697,-0.0749,-0.0774,-0.0774,-0.0737,-0.0709,-0.0598,-0.0554,-0.0384,-0.0275,-0.0089,0.0042,0.0159,0.0187,0.021,0.0217,0.0218,0.015,0.0081,0.0128,0,0,0,0,0,-0.058,-0.0618,-0.0674,-0.0727,-0.078,-0.0803,-0.0807,-0.0789,-0.0729,-0.0655,-0.0599,-0.0455,-0.0238,-0.0136,-0.0022,0.0031,0.0193,0.0166,0.0218,0.0346,0.0346,0.0285,0,0,0,0,0,0,-0.0589,-0.0645,-0.0674,-0.074,-0.0779,-0.0825,-0.0826,-0.0786,-0.0732,-0.0655,-0.0538,-0.0451,-0.0242,-0.0307,-0.0027,0.0012,0.0055,0.0277,0.0278,0.0347,0.0346,0.0346,0.0283,0,0,0,0,0]}]]